• In Romania
  • List of Countries
  • For 7 days
  • Water Temperature
  • Satellite Maps
  • Weather Map
  • Weather Widgets
  • user-avatar
    Login

    Hourly Weather Kislyakovo

    Today, 26 September, Wednesday

    Time Temperature Precipitation Wind Pressure Humidity
    00:00 +3°C° 0 mm 4 mps 744 mmHg 80%
    01:00 +2°C° 0 mm 3 mps 744 mmHg 80%
    02:00 +2°C° 0 mm 3 mps 745 mmHg 80%
    03:00 +1°C° 0 mm 3 mps 745 mmHg 82%
    04:00 +1°C° 0 mm 3 mps 746 mmHg 84%
    05:00 0°C° 0 mm 3 mps 746 mmHg 86%
    06:00 +1°C° 0 mm 3 mps 746 mmHg 84%
    07:00 +2°C° 0 mm 3 mps 746 mmHg 82%
    08:00 +3°C° 0 mm 3 mps 747 mmHg 80%
    09:00 +5°C° 0 mm 4 mps 747 mmHg 74%
    10:00 +7°C° 0 mm 4 mps 746 mmHg 68%
    11:00 +8°C° 0 mm 4 mps 746 mmHg 62%
    12:00 +9°C° 0 mm 5 mps 746 mmHg 60%
    13:00 +10°C° 0 mm 5 mps 745 mmHg 58%
    14:00 +10°C° 0 mm 5 mps 744 mmHg 56%
    15:00 +9°C° 0 mm 5 mps 744 mmHg 59%
    16:00 +8°C° 0 mm 5 mps 743 mmHg 62%
    17:00 +8°C° 0 mm 5 mps 742 mmHg 65%
    18:00 +7°C° 0.6 mm 6 mps 741 mmHg 71%
    19:00 +6°C° 0.6 mm 7 mps 740 mmHg 78%
    20:00 +5°C° 0.6 mm 8 mps 738 mmHg 85%
    21:00 +5°C° 1.5 mm 8 mps 737 mmHg 85%
    22:00 +5°C° 1.5 mm 8 mps 736 mmHg 86%
    23:00 +3°C° 1.5 mm 9 mps 734 mmHg 87%

    Tomorrow, 27 September, Thursday

    Time Temperature Precipitation Wind Pressure Humidity
    00:00 +5°C° 0.8 mm 8 mps 733 mmHg 87%
    01:00 +5°C° 0.8 mm 8 mps 732 mmHg 88%
    02:00 +5°C° 0.8 mm 8 mps 731 mmHg 88%
    03:00 +6°C° 0.7 mm 7 mps 731 mmHg 88%
    04:00 +6°C° 0.7 mm 7 mps 731 mmHg 88%
    05:00 +7°C° 0.7 mm 6 mps 730 mmHg 87%
    06:00 +7°C° 0.1 mm 6 mps 731 mmHg 84%
    07:00 +7°C° 0.1 mm 6 mps 731 mmHg 81%
    08:00 +7°C° 0.1 mm 6 mps 732 mmHg 78%
    09:00 +6°C° 0.1 mm 7 mps 732 mmHg 74%
    10:00 +8°C° 0.1 mm 7 mps 732 mmHg 70%
    11:00 +7°C° 0.1 mm 8 mps 733 mmHg 66%
    12:00 +8°C° 0.4 mm 7 mps 733 mmHg 68%
    13:00 +8°C° 0.4 mm 7 mps 733 mmHg 69%
    14:00 +8°C° 0.4 mm 7 mps 733 mmHg 71%
    15:00 +7°C° 0 mm 6 mps 734 mmHg 72%
    16:00 +7°C° 0 mm 5 mps 734 mmHg 73%
    17:00 +7°C° 0 mm 4 mps 734 mmHg 74%
    18:00 +6°C° 0 mm 4 mps 734 mmHg 75%
    19:00 +6°C° 0 mm 4 mps 735 mmHg 76%
    20:00 +5°C° 0 mm 4 mps 735 mmHg 76%
    21:00 +5°C° 0 mm 4 mps 735 mmHg 76%
    22:00 +5°C° 0 mm 4 mps 735 mmHg 76%
    23:00 +5°C° 0 mm 4 mps 735 mmHg 76%

    Day after tomorrow, 28 September, Friday

    Time Temperature Precipitation Wind Pressure Humidity
    00:00 +5°C° 0.2 mm 4 mps 734 mmHg 78%
    01:00 +5°C° 0.2 mm 3 mps 733 mmHg 81%
    02:00 +5°C° 0.2 mm 3 mps 732 mmHg 83%
    03:00 +6°C° 1.8 mm 4 mps 731 mmHg 86%
    04:00 +7°C° 1.8 mm 5 mps 729 mmHg 88%
    05:00 +8°C° 1.8 mm 6 mps 728 mmHg 91%
    06:00 +9°C° 2.4 mm 6 mps 727 mmHg 91%
    07:00 +9°C° 2.4 mm 6 mps 727 mmHg 91%
    08:00 +9°C° 2.4 mm 6 mps 727 mmHg 91%
    09:00 +9°C° 0.5 mm 6 mps 727 mmHg 89%
    10:00 +8°C° 0.5 mm 6 mps 728 mmHg 87%
    11:00 +7°C° 0.5 mm 6 mps 729 mmHg 85%
    12:00 +7°C° 0.1 mm 6 mps 730 mmHg 80%
    13:00 +7°C° 0.1 mm 6 mps 732 mmHg 75%
    14:00 +5°C° 0.1 mm 6 mps 733 mmHg 70%
    15:00 +6°C° 0 mm 5 mps 734 mmHg 71%
    16:00 +5°C° 0 mm 4 mps 735 mmHg 72%
    17:00 +5°C° 0 mm 3 mps 735 mmHg 74%
    18:00 +4°C° 0 mm 3 mps 736 mmHg 76%
    19:00 +3°C° 0 mm 3 mps 737 mmHg 78%
    20:00 +3°C° 0 mm 3 mps 737 mmHg 81%
    21:00 +3°C° 0 mm 3 mps 738 mmHg 82%
    22:00 +2°C° 0 mm 3 mps 738 mmHg 83%
    23:00 +2°C° 0 mm 3 mps 739 mmHg 84%

    29 September, Saturday

    Time Temperature Precipitation Wind Pressure Humidity
    00:00 +1°C° 0 mm 3 mps 739 mmHg 84%
    01:00 +1°C° 0 mm 3 mps 740 mmHg 84%
    02:00 +1°C° 0 mm 3 mps 740 mmHg 84%
    03:00 0°C° 0 mm 3 mps 741 mmHg 85%
    04:00 0°C° 0 mm 3 mps 742 mmHg 85%
    05:00 0°C° 0 mm 3 mps 742 mmHg 85%
    06:00 +1°C° 0 mm 3 mps 743 mmHg 80%
    07:00 +2°C° 0 mm 3 mps 743 mmHg 75%
    08:00 +3°C° 0 mm 4 mps 744 mmHg 70%
    09:00 +4°C° 0 mm 4 mps 744 mmHg 65%
    10:00 +5°C° 0 mm 4 mps 745 mmHg 60%
    11:00 +6°C° 0 mm 4 mps 745 mmHg 55%
    12:00 +6°C° 0 mm 4 mps 745 mmHg 54%
    13:00 +7°C° 0 mm 4 mps 745 mmHg 53%
    14:00 +7°C° 0 mm 4 mps 745 mmHg 52%
    15:00 +7°C° 0 mm 3 mps 746 mmHg 57%
    16:00 +5°C° 0 mm 3 mps 746 mmHg 62%
    17:00 +5°C° 0 mm 2 mps 746 mmHg 67%
    18:00 +3°C° 0 mm 2 mps 747 mmHg 70%
    19:00 +2°C° 0 mm 2 mps 747 mmHg 74%
    20:00 +2°C° 0 mm 1 mps 748 mmHg 77%
    21:00 +2°C° 0 mm 1 mps 748 mmHg 78%
    22:00 +2°C° 0 mm 1 mps 748 mmHg 78%
    23:00 +1°C° 0 mm 1 mps 748 mmHg 79%

    30 September, Sunday

    Time Temperature Precipitation Wind Pressure Humidity
    00:00 +1°C° 0 mm 1 mps 748 mmHg 80%
    01:00 +1°C° 0 mm 1 mps 749 mmHg 80%
    02:00 -1°C° 0 mm 2 mps 749 mmHg 81%
    03:00 -1°C° 0 mm 2 mps 749 mmHg 81%
    04:00 -1°C° 0 mm 2 mps 749 mmHg 81%
    05:00 -1°C° 0 mm 2 mps 749 mmHg 81%
    06:00 +1°C° 0 mm 2 mps 749 mmHg 77%
    07:00 +1°C° 0 mm 3 mps 749 mmHg 73%
    08:00 +2°C° 0 mm 3 mps 748 mmHg 69%
    09:00 +4°C° 0 mm 4 mps 748 mmHg 63%
    10:00 +5°C° 0 mm 4 mps 748 mmHg 58%
    11:00 +7°C° 0 mm 4 mps 748 mmHg 52%
    12:00 +7°C° 0 mm 5 mps 747 mmHg 52%
    13:00 +8°C° 0 mm 5 mps 747 mmHg 53%
    14:00 +8°C° 0 mm 5 mps 746 mmHg 53%
    15:00 +7°C° 0 mm 4 mps 746 mmHg 58%
    16:00 +6°C° 0 mm 4 mps 746 mmHg 62%
    17:00 +5°C° 0 mm 3 mps 745 mmHg 67%
    18:00 +5°C° 0 mm 4 mps 745 mmHg 68%
    19:00 +5°C° 0 mm 4 mps 745 mmHg 69%
    20:00 +4°C° 0 mm 4 mps 745 mmHg 70%
    21:00 +4°C° 0 mm 4 mps 745 mmHg 71%
    22:00 +4°C° 0 mm 4 mps 745 mmHg 72%
    23:00 +4°C° 0 mm 4 mps 745 mmHg 74%

    1 October, Monday

    Time Temperature Precipitation Wind Pressure Humidity
    00:00 +4°C° 0 mm 4 mps 744 mmHg 74%
    01:00 +4°C° 0 mm 4 mps 744 mmHg 75%
    02:00 +4°C° 0 mm 4 mps 744 mmHg 76%
    03:00 +4°C° 0 mm 4 mps 744 mmHg 77%
    04:00 +4°C° 0 mm 4 mps 744 mmHg 77%
    05:00 +5°C° 0 mm 4 mps 743 mmHg 77%
    06:00 +5°C° 0 mm 4 mps 743 mmHg 77%
    07:00 +5°C° 0 mm 4 mps 743 mmHg 76%
    08:00 +6°C° 0 mm 5 mps 743 mmHg 75%
    09:00 +7°C° 0 mm 5 mps 743 mmHg 71%
    10:00 +8°C° 0 mm 5 mps 743 mmHg 68%
    11:00 +9°C° 0 mm 5 mps 743 mmHg 64%
    12:00 +10°C° 0 mm 5 mps 743 mmHg 62%
    13:00 +10°C° 0 mm 5 mps 743 mmHg 60%
    14:00 +12°C° 0 mm 5 mps 743 mmHg 59%
    15:00 +11°C° 0 mm 4 mps 743 mmHg 64%
    16:00 +10°C° 0 mm 3 mps 743 mmHg 69%
    17:00 +9°C° 0 mm 3 mps 743 mmHg 74%
    18:00 +8°C° 0 mm 3 mps 743 mmHg 76%
    19:00 +7°C° 0 mm 3 mps 743 mmHg 79%
    20:00 +7°C° 0 mm 3 mps 743 mmHg 82%
    21:00 +5°C° 0 mm 3 mps 743 mmHg 83%
    22:00 +6°C° 0 mm 2 mps 744 mmHg 83%
    23:00 +6°C° 0 mm 2 mps 744 mmHg 84%
    Show more